Weather in Rakushino

Russia / Novgorod Oblast     58°03′31″N   32°40′08″E
temp.,
°C
wind,
m/s
gust,
m/s
humid.,
%
clouds,
%
prec.,
mm/h
press.,
hPa
HPBL,
m
8 may, sat
sat800:00+6se2683100 0.1 1006132
03:00+6sse41290100 1.1 1004691
06:00+6sse51094100 1.4 10031036
09:00+6sw489479 4.7 1004743
12:00+5sw3793100 0.1 1006647
15:00+8w4576100 0.4 10061112
18:00+8nw5667100 0.1 10071158
21:00+3wnw278396 0.1 1008211
9 may, sun
sun900:00+2nw3109616 0.0 1009460
03:00+2nw3988100 0.0 1011828
06:00+1wnw399418 0.0 1013374
09:00+6wnw47621 0.0 1014721
12:00+10wnw58425 0.0 10161957
15:00+11wnw58335 0.0 10182293
18:00+11wnw464353 0.0 10192120
21:00+5sw11645 0.0 102210
10 may, mon
mon1000:00+3s25705 0.0 102385
03:00+3s398199 0.0 1024171
06:00+5s4136570 0.0 1024438
09:00+7s41275100 0.2 1025457
12:00+10ssw51162100 0.0 1025726
15:00+16sw585136 0.0 10251098
18:00+17sw475811 0.0 10251162
21:00+11s3983100 0.0 1026169
11 may, tue
tue1100:00+10s3118384 0.0 1028252
03:00+8s2990100 0.0 1028174
06:00+8s2983100 0.0 1029209
09:00+14ssw47586 0.0 1029566
12:00+18ssw464567 0.0 10281278
15:00+20s464179 0.0 10271536
18:00+20sse245065 0.0 10261001
21:00+13se3975100 0.0 1026158
12 may, wed
wed1200:00+11sse3108199 0.0 1027234
03:00+9se238355 0.0 102751
06:00+9se257922 0.0 1028103
09:00+16se34525 0.0 1026484
12:00+21ese35425 0.0 10251117
15:00+23ese46400 0.0 10241583
18:00+22se47521 0.0 10231516
21:00+17se277437 0.0 1023173